This demonstration page uses our WeatherBlox Daily Observations layout. Learn more.

Left ArrowRight Arrow

44.8408, -93.29828

Hourly Observations for December 5, 2022

Temp ( °F °C ) Dew Point ( °F °C ) Humidity (%) Winds ( mph kmh ) Pressure ( in mb ) Visibility ( mi km ) Precip ( " mm )
12:53 am 00:53 Mostly Cloudy 26 -3.3 17 -8.3 68 68 WSW 5 7 29.78 1008 10 16 0.00 0.00
1:53 am 01:53 Cloudy 28 -2.2 18 -7.8 65 65 SW 6 9 29.77 1008 10 16 0.00 0.00
2:53 am 02:53 Cloudy 27 -2.8 19 -7.2 72 72 Calm 29.78 1009 10 16 0.00 0.00
3:53 am 03:53 Cloudy 27 -2.8 19 -7.2 72 72 W 3 6 29.79 1009 10 16 0.00 0.00
4:53 am 04:53 Cloudy 27 -2.8 19 -7.2 72 72 NW 6 9 29.80 1009 10 16 0.00 0.00
5:53 am 05:53 Cloudy 27 -2.8 19 -7.2 72 72 WNW 6 9 29.81 1010 10 16 0.00 0.00
6:53 am 06:53 Mostly Cloudy 26 -3.3 18 -7.8 71 71 NW 5 7 29.82 1010 10 16 0.00 0.00
7:53 am 07:53 Mostly Cloudy 26 -3.3 18 -7.8 71 71 NW 6 9 29.85 1011 10 16 0.00 0.00
8:53 am 08:53 Cloudy 28 -2.2 19 -7.2 68 68 NNW 7 11 29.88 1012 10 16 0.00 0.00
9:53 am 09:53 Cloudy 28 -2.2 18 -7.8 65 65 NW 13 20 29.90 1012 10 16 0.00 0.00
10:53 am 10:53 Cloudy 29 -1.7 18 -7.8 63 63 NNW 7 11 29.91 1013 10 16 0.00 0.00
11:53 am 11:53 Cloudy 29 -1.7 18 -7.8 63 63 NNW 12 19 29.91 1013 10 16 0.00 0.00
12:53 pm 12:53 Cloudy 30 -1.1 18 -7.8 60 60 NW 10 17 29.91 1013 10 16 0.00 0.00
1:53 pm 13:53 Cloudy 30 -1.1 18 -7.8 60 60 NW 9 15 29.93 1013 10 16 0.00 0.00
2:53 pm 14:53 Cloudy 29 -1.7 15 -9.4 56 56 NW 12 19 29.95 1014 10 16 0.00 0.00
4:02 pm 16:02 Cloudy with Haze 27 -2.8 17 -8.3 66 66 NW 12 19 30.00 1016 6 10 0.01 0.13
4:13 pm 16:13 Cloudy with Light Snow 26 -3.3 17 -8.3 68 68 NW 15 24 30.02 1016 7 11 0.01 0.13
4:30 pm 16:30 Cloudy with Light Snow 25 -3.9 18 -7.8 74 74 NNW 10 17 30.02 1017 2 3 0.01 0.13
4:43 pm 16:43 Cloudy with Light Snow 25 -3.9 18 -7.8 74 74 NW 12 19 30.02 1017 4 6 0.01 0.13
4:53 pm 16:53 Cloudy with Light Snow 25 -3.9 18 -7.8 74 74 NW 9 15 30.01 1016 5 8 0.01 0.13
5:45 pm 17:45 Cloudy 24 -4.4 16 -8.9 71 71 NW 13 20 30.05 1018 9 14 0.01 0.13
5:53 pm 17:53 Cloudy 24 -4.4 16 -8.9 71 71 NW 13 20 30.02 1017 10 16 0.01 0.13
6:53 pm 18:53 Mostly Cloudy 24 -4.4 16 -8.9 71 71 NW 9 15 30.04 1017 10 16 0.00 0.00
7:53 pm 19:53 Mostly Cloudy 23 -5 9 -12.8 54 54 NNW 12 19 30.06 1018 10 16 0.00 0.00
8:53 pm 20:53 Mostly Cloudy 22 -5.6 7 -13.9 52 52 NNW 10 17 30.06 1018 10 16 0.00 0.00
9:53 pm 21:53 Partly Cloudy 19 -7.2 8 -13.3 62 62 N 6 9 30.06 1018 10 16 0.00 0.00
10:53 pm 22:53 Mostly Clear 18 -7.8 8 -13.3 65 65 N 10 17 30.08 1019 10 16 0.00 0.00
11:53 pm 23:53 Mostly Clear 16 -8.9 7 -13.9 67 67 N 5 7 30.10 1019 10 16 0.00 0.00

Powered by AerisWeather